User: anonymous   Login
Location: NJAA Observatory
(40.6819°N, 74.8979°W)
Time: 15:01:37
(UTC-04:00)
Language:

Cosmos 2237 Rocket - Orbit

View from above orbital plane
View from above orbital plane
View from above satellite
View from above satellite

Ground track
Ground track

The orbit data is extracted from the following two-line orbital elements,

1 22566U 93016B   15184.82317405 -.00000118  00000-0 -36604-4 0  9994
2 22566 071.0072 126.3597 0009206 151.2352 208.9280 14.14901275150222
Epoch (UTC): 03 July 2015 19:45:22
Eccentricity: 0.0009206
inclination: 71.0072°
perigee height: 836 km
apogee height: 849 km
right ascension of ascending node: 126.3597°
argument of perigee: 151.2352°
revolutions per day: 14.14901275
mean anomaly at epoch: 208.9280°
orbit number at epoch: 15022

The dashed part of the orbit path shows where the satellite is in the earth's shadow,  

DLR